Location: Anglesey
(53.1800°N, 4.2200°W)
Time: 03:50:16
(UTC+00:00)

Tiangong 2 - Visible Passes

Search period start: 19 January 2019 00:00
Search period end: 29 January 2019 00:00
Orbit: 380 x 392 km, 42.8° (Epoch: 18 January)

Date Brightness Start Highest point End Pass type
(mag) Time Alt. Az. Time Alt. Az. Time Alt. Az.
19 Jan 3.9 07:24:05 10° SSW 07:25:43 13° S 07:27:23 10° SSE visible
20 Jan 3.8 06:25:26 10° SSW 06:27:00 13° S 06:28:34 10° SE visible
21 Jan 4.1 05:28:59 11° SSE 05:28:59 11° SSE 05:29:28 10° SSE visible
21 Jan 3.8 07:02:43 10° SW 07:04:12 13° S 07:05:42 10° SSE visible
22 Jan 3.6 06:04:58 13° S 06:05:27 13° S 06:07:05 10° SSE visible
23 Jan 3.8 06:41:42 10° SSW 06:42:38 11° SSW 06:43:34 10° S visible
24 Jan 3.9 05:44:39 12° S 05:44:39 12° S 05:45:21 10° SSE visible
